TimePST,TemperatureF,Dew PointF,Humidity,Sea Level PressureIn,VisibilityMPH,Wind Direction,Wind SpeedMPH,Gust SpeedMPH,PrecipitationIn,Events,Conditions,WindDirDegrees,DateUTC
12:55 AM,66.9,19.9,17,30.13,10.0,ENE,10.4,-,N/A,,Clear,70,2013-12-16 08:55:00
1:55 AM,66.0,21.0,18,30.12,10.0,ENE,8.1,-,N/A,,Clear,70,2013-12-16 09:55:00
2:55 AM,64.9,21.0,19,30.11,10.0,ENE,6.9,-,N/A,,Clear,60,2013-12-16 10:55:00
3:55 AM,66.0,19.9,17,30.10,10.0,East,3.5,-,N/A,,Clear,90,2013-12-16 11:55:00
4:55 AM,63.0,21.0,20,30.10,10.0,ENE,6.9,-,N/A,,Clear,60,2013-12-16 12:55:00
5:55 AM,66.0,19.9,17,30.10,10.0,East,5.8,-,N/A,,Clear,80,2013-12-16 13:55:00
6:55 AM,64.0,21.0,19,30.11,10.0,East,6.9,-,N/A,,Clear,100,2013-12-16 14:55:00
7:55 AM,70.0,19.9,15,30.12,10.0,Calm,Calm,-,N/A,,Clear,0,2013-12-16 15:55:00
8:55 AM,75.0,19.9,13,30.13,10.0,East,11.5,-,N/A,,Clear,90,2013-12-16 16:55:00
9:55 AM,80.1,19.9,11,30.14,10.0,East,11.5,-,N/A,,Clear,90,2013-12-16 17:55:00
10:55 AM,77.0,32.0,19,30.14,10.0,WNW,8.1,-,N/A,,Clear,290,2013-12-16 18:55:00
11:55 AM,78.1,32.0,19,30.11,10.0,West,5.8,-,N/A,,Clear,260,2013-12-16 19:55:00
12:55 PM,75.0,34.0,22,30.11,10.0,WSW,8.1,-,N/A,,Clear,240,2013-12-16 20:55:00
1:55 PM,78.1,28.9,17,30.08,10.0,Calm,Calm,-,N/A,,Clear,0,2013-12-16 21:55:00
2:55 PM,78.1,30.9,18,30.07,10.0,SSW,3.5,-,N/A,,Clear,200,2013-12-16 22:55:00
3:55 PM,73.0,43.0,34,30.08,10.0,West,6.9,-,N/A,,Clear,260,2013-12-16 23:55:00
4:55 PM,64.0,39.9,41,30.09,10.0,WNW,6.9,-,N/A,,Clear,290,2013-12-17 00:55:00
5:55 PM,59.0,37.9,46,30.09,10.0,Calm,Calm,-,N/A,,Clear,0,2013-12-17 01:55:00
6:55 PM,59.0,39.9,49,30.10,10.0,Calm,Calm,-,N/A,,Clear,0,2013-12-17 02:55:00
7:55 PM,57.0,39.0,51,30.12,10.0,Calm,Calm,-,N/A,,Clear,0,2013-12-17 03:55:00
8:55 PM,57.9,35.1,42,30.12,10.0,NNE,5.8,-,N/A,,Clear,20,2013-12-17 04:55:00
9:55 PM,59.0,32.0,36,30.12,10.0,NE,10.4,-,N/A,,Clear,50,2013-12-17 05:55:00
10:55 PM,62.1,27.0,26,30.12,10.0,ENE,8.1,-,N/A,,Clear,70,2013-12-17 06:55:00
11:55 PM,63.0,25.0,24,30.12,10.0,NE,9.2,-,N/A,,Clear,50,2013-12-17 07:55:00